Вернуться в каталог

O3B FM20

АктивенСвязьMEO
NORAD 44112·PAYLOAD·🇱🇺 Luxembourg

Запущен Apr 4, 2019 с Guiana Space Centre

Loading…

Ближайшие Пролёты (ближайшие 24 часа)

TLE

СвежийSource: CelesTrak SupGP

Эпоха: Sep 13, 2026, 19:59 UTC

1 44112C 19020A   26256.83333333  .00000000  00000+0  00000+0 0  2568
2 44112   0.0543 353.7126 0002234 177.4231 314.6580  5.00115783    17

Отслеживайте O3B FM20 в реальном времени с AllMySat

Download on the App Store